User: anonymous   Login
Location: Unspecified
(0.0000°N, 0.0000°E)
Time: 00:32:57
(UTC+00:00)
Language:

DMSP B5D2-6 - Orbit

View from above orbital plane
View from above orbital plane
View from above satellite
View from above satellite

Ground track
Ground track

The orbit data is extracted from the following two-line orbital elements,

1 21798U 91082A   20059.47486935 -.00000001 +00000-0 +22067-4 0  9992
2 21798 098.9098 077.6690 0012931 014.0324 346.1206 14.16563700459325
Epoch (UTC): 28 February 2020 11:23:48
Eccentricity: 0.0012931
inclination: 98.9098°
perigee height: 827 km
apogee height: 846 km
right ascension of ascending node: 77.6690°
argument of perigee: 14.0324°
revolutions per day: 14.16563700
mean anomaly at epoch: 346.1206°
orbit number at epoch: 45932

The dashed part of the orbit path shows where the satellite is in the earth's shadow,  

DLR